Date String (YYYY-MM-DD hh:mm:ss) UTC,Instrument flags,Ambient pressure (hPa),Sample flow (lpm),Bypass flow (lpm),Sample temperature (°C),Ambient temperature (°C),ASC tube jacket temperature (°C),LED temperature (°C),Box temperature (°C),Sample RH (%),Span deviation,Mass concentration (μg/m³),Mass concentration (μg/m³),Mass concentration (μg/m³)
DateTimeUTC,F1_M11,P_M11,Q1_M11,Q2_M11,T1_M11,T2_M11,T3_M11,T4_M11,T5_M11,U1_M11,ZSPAN_M11,X0_M11,X2_M11,X1_M11
2022-04-18 04:00:00,,0829.6,4.99,0.00,26.6,25.7,00.0,35.5,28.4,12.1,0000.0,0008.98,0003.33,0001.53
2022-04-18 04:01:00,,0829.7,5.00,0.00,26.6,25.7,00.0,35.5,28.4,12.0,0000.0,0008.55,0003.36,0001.53
2022-04-18 04:02:00,,0829.8,5.01,0.00,26.6,25.7,00.0,35.5,28.4,12.1,0000.0,0008.38,0003.38,0001.53
2022-04-18 04:03:00,,0829.8,5.00,0.00,26.5,25.7,00.0,35.5,28.3,12.1,0000.0,0007.97,0003.29,0001.52
2022-04-18 04:04:00,,0829.8,5.00,0.00,26.5,25.7,00.0,35.5,28.3,12.1,0000.0,0008.30,0003.28,0001.50
2022-04-18 04:05:00,,0829.8,5.00,0.00,26.5,25.7,00.0,35.5,28.3,12.2,0000.0,0008.41,0003.26,0001.52
2022-04-18 04:06:00,,0829.8,5.00,0.00,26.5,25.7,00.0,35.5,28.3,12.2,0000.0,0008.41,0003.25,0001.55
2022-04-18 04:07:00,,0829.9,5.01,0.00,26.5,25.7,00.0,35.5,28.3,12.2,0000.0,0008.26,0003.20,0001.55
2022-04-18 04:08:00,,0830.0,5.00,0.00,26.5,25.7,00.0,35.5,28.3,12.3,0000.0,0008.39,0003.21,0001.55
2022-04-18 04:09:00,,0830.1,4.99,0.00,26.5,25.7,00.0,35.5,28.3,12.3,0000.0,0008.36,0003.22,0001.54
2022-04-18 04:10:00,,0830.1,4.99,0.00,26.5,25.7,00.0,35.4,28.3,12.3,0000.0,0008.54,0003.24,0001.56
2022-04-18 04:11:00,,0830.1,5.01,0.00,26.5,25.7,00.0,35.4,28.3,12.4,0000.0,0008.72,0003.27,0001.57
2022-04-18 04:12:00,,0830.1,5.00,0.00,26.5,25.7,00.0,35.4,28.3,12.4,0000.0,0008.81,0003.28,0001.56
2022-04-18 04:13:00,,0830.1,4.99,0.00,26.5,25.7,00.0,35.4,28.3,12.4,0000.0,0009.17,0003.31,0001.56
2022-04-18 04:14:00,,0830.1,5.00,0.00,26.5,25.7,00.0,35.4,28.3,12.4,0000.0,0009.34,0003.35,0001.56
2022-04-18 04:15:00,,0830.2,5.00,0.00,26.4,25.7,00.0,35.4,28.2,12.4,0000.0,0008.98,0003.40,0001.57
2022-04-18 04:16:00,,0830.2,5.01,0.00,26.4,25.6,00.0,35.4,28.2,12.5,0000.0,0008.94,0003.47,0001.57
2022-04-18 04:17:00,,0830.2,5.00,0.00,26.4,25.6,00.0,35.4,28.2,12.5,0000.0,0009.08,0003.50,0001.55
2022-04-18 04:18:00,,0830.2,5.00,0.00,26.4,25.6,00.0,35.4,28.2,12.5,0000.0,0009.77,0003.54,0001.56
2022-04-18 04:19:00,,0830.2,5.00,0.00,26.4,25.6,00.0,35.4,28.2,12.5,0000.0,0010.79,0003.57,0001.57
2022-04-18 04:20:00,,0830.2,4.99,0.00,26.4,25.6,00.0,35.4,28.2,12.6,0000.0,0011.17,0003.61,0001.59
2022-04-18 04:21:00,,0830.2,5.00,0.00,26.4,25.6,00.0,35.4,28.2,12.5,0000.0,0010.69,0003.60,0001.60
2022-04-18 04:22:00,,0830.2,5.00,0.00,26.4,25.6,00.0,35.4,28.2,12.5,0000.0,0010.39,0003.57,0001.60
2022-04-18 04:23:00,,0830.4,5.00,0.00,26.4,25.6,00.0,35.4,28.2,12.4,0000.0,0011.12,0003.57,0001.63
2022-04-18 04:24:00,,0830.4,4.99,0.00,26.4,25.6,00.0,35.3,28.2,12.5,0000.0,0011.39,0003.56,0001.64
2022-04-18 04:25:00,,0830.3,5.00,0.00,26.4,25.6,00.0,35.3,28.2,12.5,0000.0,0011.44,0003.59,0001.65
2022-04-18 04:26:00,,0830.4,4.99,0.00,26.4,25.6,00.0,35.3,28.2,12.5,0000.0,0011.44,0003.57,0001.67
2022-04-18 04:27:00,,0830.4,5.00,0.00,26.4,25.6,00.0,35.3,28.2,12.4,0000.0,0011.59,0003.52,0001.69
2022-04-18 04:28:00,,0830.4,5.00,0.00,26.4,25.6,00.0,35.3,28.2,12.5,0000.0,0011.95,0003.53,0001.71
2022-04-18 04:29:00,,0830.4,5.00,0.00,26.4,25.6,00.0,35.3,28.2,12.5,0000.0,0011.36,0003.51,0001.73
2022-04-18 04:30:00,,0830.6,5.00,0.00,26.4,25.6,00.0,35.3,28.2,12.4,0000.0,0010.19,0003.47,0001.74
2022-04-18 04:31:00,,0830.6,5.00,0.00,26.4,25.6,00.0,35.3,28.2,12.4,0000.0,0009.70,0003.45,0001.76
2022-04-18 04:32:00,,0830.6,5.00,0.00,26.4,25.6,00.0,35.3,28.2,12.4,0000.0,0010.16,0003.48,0001.81
2022-04-18 04:33:00,,0830.6,4.99,0.00,26.4,25.6,00.0,35.3,28.3,12.4,0000.0,0010.66,0003.50,0001.84
2022-04-18 04:34:00,,0830.6,5.00,0.00,26.4,25.6,00.0,35.3,28.3,12.4,0000.0,0010.00,0003.50,0001.86
2022-04-18 04:35:00,,0830.6,5.00,0.00,26.4,25.6,00.0,35.3,28.2,12.3,0000.0,0009.46,0003.53,0001.88
2022-04-18 04:36:00,,0830.7,5.00,0.00,26.4,25.6,00.0,35.3,28.3,12.3,0000.0,0009.46,0003.52,0001.90
2022-04-18 04:37:00,,0830.7,5.02,0.00,26.4,25.6,00.0,35.3,28.2,12.3,0000.0,0009.91,0003.54,0001.93
2022-04-18 04:38:00,,0830.7,5.00,0.00,26.4,25.6,00.0,35.3,28.2,12.3,0000.0,0009.66,0003.55,0001.96
2022-04-18 04:39:00,,0830.7,5.00,0.00,26.4,25.6,00.0,35.3,28.2,12.3,0000.0,0009.44,0003.55,0002.00
2022-04-18 04:40:00,,0830.8,5.01,0.00,26.4,25.6,00.0,35.3,28.3,12.3,0000.0,0009.80,0003.54,0002.01
2022-04-18 04:41:00,,0830.9,5.00,0.00,26.4,25.6,00.0,35.3,28.3,12.3,0000.0,0009.92,0003.57,0002.04
2022-04-18 04:42:00,,0830.9,5.00,0.00,26.4,25.6,00.0,35.3,28.3,12.3,0000.0,0010.04,0003.59,0002.05
2022-04-18 04:43:00,,0830.9,5.00,0.00,26.4,25.6,00.0,35.3,28.3,12.3,0000.0,0009.84,0003.60,0002.06
2022-04-18 04:44:00,,0830.9,4.99,0.00,26.4,25.6,00.0,35.3,28.3,12.3,0000.0,0009.58,0003.65,0002.06
2022-04-18 04:45:00,,0831.0,4.99,0.00,26.4,25.6,00.0,35.3,28.3,12.3,0000.0,0009.58,0003.70,0002.08
2022-04-18 04:46:00,,0831.0,5.00,0.00,26.5,25.6,00.0,35.3,28.3,12.3,0000.0,0010.34,0003.74,0002.09
2022-04-18 04:47:00,,0831.1,5.00,0.00,26.5,25.6,00.0,35.3,28.3,12.3,0000.0,0010.49,0003.74,0002.10
2022-04-18 04:48:00,,0831.2,5.01,0.00,26.5,25.7,00.0,35.3,28.3,12.3,0000.0,0010.00,0003.73,0002.09
2022-04-18 04:49:00,,0831.2,5.00,0.00,26.5,25.7,00.0,35.3,28.3,12.3,0000.0,0010.23,0003.75,0002.08
2022-04-18 04:50:00,,0831.2,5.00,0.00,26.5,25.7,00.0,35.3,28.3,12.3,0000.0,0010.28,0003.78,0002.06
2022-04-18 04:51:00,,0831.1,5.00,0.00,26.5,25.7,00.0,35.3,28.3,12.3,0000.0,0009.73,0003.79,0002.07
2022-04-18 04:52:00,,0831.2,4.99,0.00,26.5,25.7,00.0,35.3,28.3,12.2,0000.0,0009.80,0003.83,0002.06
2022-04-18 04:53:00,,0831.2,5.00,0.00,26.5,25.7,00.0,35.3,28.3,12.2,0000.0,0009.68,0003.84,0002.07
2022-04-18 04:54:00,,0831.2,4.99,0.00,26.5,25.7,00.0,35.4,28.3,12.2,0000.0,0009.86,0003.88,0002.06
2022-04-18 04:55:00,,0831.1,4.99,0.00,26.5,25.7,00.0,35.4,28.3,12.2,0000.0,0009.94,0003.84,0002.05
2022-04-18 04:56:00,,0831.2,5.00,0.00,26.5,25.7,00.0,35.4,28.3,12.2,0000.0,0009.81,0003.77,0002.02
2022-04-18 04:57:00,,0831.3,5.00,0.00,26.5,25.7,00.0,35.4,28.3,12.2,0000.0,0009.29,0003.73,0002.00
2022-04-18 04:58:00,,0831.4,5.00,0.00,26.5,25.7,00.0,35.4,28.3,12.2,0000.0,0009.12,0003.74,0001.98
2022-04-18 04:59:00,,0831.4,5.01,0.00,26.5,25.7,00.0,35.4,28.3,12.2,0000.0,0009.20,0003.76,0001.96
